BEIDOU IGSO-7

Last updated on Sun Feb 19 2023 00:02:47 GMT+0000 (Coordinated Universal Time)

1 43539U 18057A 23049.61032538 -.00000165 00000+0 00000+0 0 9992 2 43539 55.1036 173.5688 0056457 228.1163 77.1918 1.00291219 16975

Satellite not in orbit

BEIDOU IGSO-7